Location: SE Lincoln, NE
(40.7805°N, 96.6275°W)
Time: 11:35:47
(UTC-05:00)

Daily predictions for brighter satellites

Satellite Brightness Start Highest point End
(mag) Time Altitude Azimuth Time Altitude Azimuth Time Altitude Azimuth
USA 215 3.5 21:23:33 10° SE 21:30:04 69° SW 21:36:38 10° NW
Cosmos 1400 Rocket 3.2 21:27:08 10° SSE 21:31:00 44° E 21:34:49 10° NNE
Cosmos 1452 Rocket 4.0 21:28:41 10° N 21:33:47 47° ENE 21:38:51 10° SE
USA 186 3.5 21:33:27 10° SSW 21:36:28 32° W 21:39:22 10° NNW
Cosmos 1943 3.2 21:31:12 10° NNW 21:36:55 84° ENE 21:42:33 10° SSE
Cosmos 2056 Rocket 4.0 21:33:03 10° NNW 21:38:08 61° WSW 21:43:15 10° S
Spot 2 Rocket 3.5 21:33:28 10° SSE 21:38:30 82° ENE 21:43:35 10° NNW
BREEZE-M DEB (TANK) 4.1 21:29:42 10° SW 21:43:45 59° SSE 21:47:44 10° ENE
Intercosmos 25 3.9 21:41:05 10° SSW 21:44:13 53° WNW 21:48:06 10° N
Cosmos 158 Rocket 4.0 21:40:51 10° S 21:46:10 72° ESE 21:51:23 10° NNE
H-2A R/B 2.7 21:43:28 10° SE 21:48:22 42° ENE 21:53:23 10° N
Cosmos 1470 3.2 21:45:35 10° NNW 21:49:26 64° W 21:53:18 10° S
Cosmos 1626 Rocket 4.4 21:45:39 10° SSW 21:50:01 55° W 21:54:24 10° N
ERS-2 2.7 21:46:33 10° S 21:50:09 58° WSW 21:53:48 10° NNW
Cosmos 1607 4.0 21:45:28 10° NNW 21:51:54 87° WSW 21:58:10 10° SSE
ARGOS 3.3 21:51:59 10° SSE 21:57:20 63° ENE 22:02:42 10° N
Meteor 2-11 Rocket 4.4 21:51:23 10° S 21:57:27 87° E 22:03:34 10° N
Cosmos 972 4.3 21:53:31 10° SSW 21:58:32 84° ESE 22:03:26 10° NNE
Meteor 1-24 Rocket 4.4 21:54:07 10° SSE 21:59:40 41° E 22:05:16 10° NNE
OAO 3 Rocket 3.9 21:56:27 10° SW 22:00:55 35° SSE 22:05:21 10° ESE
Cosmos-2242 4.1 21:59:01 10° NNE 22:02:52 29° ENE 22:05:52 14° SE
Meteor 2-5 Rocket 3.9 21:59:26 10° S 22:05:19 69° E 22:11:14 10° NNE
Cosmos 1844 Rocket 3.5 22:00:34 10° SSE 22:05:29 31° ESE 22:10:25 10° NE
Cosmos 1812 Rocket 4.1 22:02:10 10° NNW 22:06:26 59° W 22:10:43 10° S
Cosmos 1437 4.0 22:04:51 10° NNE 22:07:33 25° ENE 22:09:11 17° ESE
Resurs 01 Rocket 3.2 22:05:07 10° SSW 22:09:03 32° W 22:13:03 10° NNW
Cosmos 1932 4.5 22:03:58 10° NNW 22:10:13 75° ENE 22:15:23 15° SE
MetOp-A 4.1 22:06:50 10° SSE 22:12:09 81° ENE 22:17:32 10° NNW
SL-08 RB Rocket 3.8 22:10:02 13° SSE 22:14:09 69° ENE 22:18:48 10° N
Cosmos 1953 Rocket 3.7 22:10:03 10° S 22:14:17 56° E 22:18:34 10° NNE
Cosmos 1758 Rocket 3.5 22:15:36 10° S 22:20:03 82° E 22:24:31 10° N
ATLAS 3B R/B 3.9 22:17:32 10° NNW 22:23:16 29° NE 22:28:55 10° E
Cosmos 1908 4.2 22:22:24 10° NNE 22:25:52 31° ENE 22:27:37 21° ESE
Helios 1A 3.7 22:26:51 21° SE 22:29:11 39° ENE 22:33:07 10° N
Terra 3.3 22:27:13 15° ESE 22:29:48 24° ENE 22:33:34 10° NNE
Cosmos 2263 Rocket 4.1 22:30:46 10° WSW 22:35:50 33° WNW 22:40:55 10° N
Cosmos 1315 Rocket 3.2 22:33:10 10° SSW 22:37:10 64° W 22:41:14 10° N
GENESIS II 4.1 22:34:18 10° SSW 22:38:11 87° ESE 22:42:07 10° NNE
ATLAS 2AS CENTAUR R/B 3.0 22:36:46 10° SSW 22:44:27 72° ESE 22:52:33 10° NE
Helios 1B rocket 2.9 22:43:55 10° NNE 22:47:48 40° E 22:49:09 30° SE
Cosmos 2285 Rocket 4.1 22:41:34 10° SSW 22:47:54 81° WNW 22:54:15 10° NNE
CSL-04 DEB 4.4 22:46:29 24° S 22:48:43 73° WSW 22:52:40 10° NNW
ERS-1 Rocket 3.1 22:46:49 19° S 22:50:24 71° WSW 22:55:27 10° NNW
Cosmos 2221 4.2 22:48:56 10° NNE 22:52:02 19° ENE 22:53:10 17° E
Cosmos 1340 3.5 22:49:12 10° N 22:52:44 36° ENE 22:53:42 30° ESE
SPOT 5 3.0 22:50:02 25° SSE 22:52:58 79° ENE 22:58:12 10° N
CZ-2C R/B 3.8 22:49:03 10° NE 22:53:23 24° E 22:54:35 22° ESE
Timation 1 Rocket 4.3 22:48:50 10° SSW 22:54:44 70° ESE 23:00:41 10° NNE
Iridium 18 4.2 22:54:33 37° S 22:55:40 84° W 22:59:13 10° N
Cosmos 1626 4.4 22:56:30 12° ENE 22:56:30 12° ENE 22:57:32 10° ENE
Meteor 1-29 3.6 22:55:04 10° NNE 22:58:14 35° E 22:58:17 35° E
Cosmos 921 Rocket 3.0 22:55:29 10° NNW 22:59:58 76° ENE 23:01:51 34° SSE
Cosmos 1300 4.0 22:58:23 10° NNE 23:01:37 25° ENE 23:02:11 24° E
Lacrosse 5 2.3 22:57:45 10° SW 23:02:46 65° NW 23:07:49 10° NE
Cosmos 1674 2.7 23:00:48 26° SSW 23:02:49 77° W 23:06:39 10° N
Cosmos 1238 Rocket 4.1 23:02:35 11° SW 23:04:57 26° WNW 23:07:30 10° NNW
S3M 4.0 23:04:32 23° S 23:08:43 75° E 23:15:07 10° N
CARTOSAT-1 3.5 23:13:18 41° SSE 23:14:44 75° ENE 23:19:04 10° N
Meteor 2-13 Rocket 4.5 23:11:29 10° N 23:17:33 68° E 23:20:20 33° SSE
SL-14 R/B 3.4 23:19:42 48° ESE 23:20:02 50° E 23:23:50 10° NNE
Cosmos 1346 Rocket 4.1 23:16:35 10° NNW 23:20:15 35° W 23:22:09 22° SW
NOSS 3-4 (A) 3.9 23:20:16 33° SE 23:21:47 38° ESE 23:27:34 10° NE
NOSS 3-4 (C) 3.9 23:20:26 33° SE 23:21:52 38° ESE 23:27:38 10° NE
Cosmos 2278 Rocket 2.6 23:20:26 35° SE 23:21:57 43° ESE 23:27:18 10° NE
ATLAS 3B CENTAUR R/B 4.4 23:13:56 10° SW 23:24:06 23° S 23:24:06 23° S
SPOT 1/Viking Rocket 4.1 23:24:32 27° SSW 23:27:09 52° W 23:32:11 10° NNW
H-2A R/B 3.9 23:23:43 10° SSW 23:27:54 24° W 23:32:13 10° NW
COSMOS 2406 3.2 23:22:34 10° NNW 23:28:23 88° ENE 23:30:39 39° SSE
Cosmos 1726 2.7 23:28:28 10° NNW 23:32:08 51° W 23:32:56 42° SW
Cosmos 220 Rocket 3.8 23:31:15 51° S 23:32:16 82° ESE 23:36:30 10° NNE
Cosmos 1553 Rocket 4.3 23:29:18 18° SSW 23:33:51 60° W 23:39:52 10° N
Cosmos 1461 3.7 23:34:20 40° ESE 23:34:20 40° ESE 23:38:32 10° NE
CENTAUR R/B 4.3 23:27:21 10° NNW 23:34:16 33° NE 23:41:25 11° E
Cosmos 1110 Rocket 4.4 23:32:24 10° NNW 23:37:26 53° WSW 23:39:18 35° SSW
SL-8 R/B 3.8 23:35:30 10° WSW 23:40:20 78° NNW 23:45:12 10° ENE
Cosmos 1842 Rocket 3.8 23:37:25 10° NNW 23:41:43 62° W 23:42:46 46° SSW
IGS 5A 4.0 23:41:29 40° SW 23:42:28 49° W 23:46:30 10° NNW
ADEOS Rocket 4.4 23:38:07 10° NE 23:42:31 21° E 23:43:06 21° ESE
Cosmos 1844 4.4 23:37:06 10° SW 23:42:38 54° WNW 23:48:19 10° NNE
Cosmos 2315 Rocket 4.2 23:41:44 39° SSE 23:43:52 58° E 23:50:05 10° NNE
OAO 3 Rocket 3.8 23:39:23 10° WSW 23:43:16 39° SSW 23:43:16 39° SSW
COBE Rocket 4.3 23:39:30 10° NNE 23:44:23 46° E 23:45:03 43° ESE
APEX 3.1 23:43:09 10° NNW 23:45:54 63° NNE 23:45:54 63° NNE
Cosmos 1076 Rocket 3.7 23:46:47 52° E 23:46:50 52° E 23:50:58 10° NNE
Cosmos 1844 Rocket 4.1 23:44:02 10° SW 23:49:14 37° WNW 23:54:29 10° N
Cosmos 883 Rocket 4.4 23:48:01 38° S 23:50:34 87° E 23:56:50 10° N
H-2A R/B 4.4 23:53:56 11° ENE 23:54:46 11° ENE 23:56:00 10° NE
